NPT4A EGNX-EGPH

Flight info

Callsign NPT4A
Flight time 0h 40m
Altitude 28000
Route TNT N57 POL UN601 RIBEL DCT ERGAB DCT INPIP
Aircraft R722/M-SDFGRWY/S

Departure

Time 2026-05-06 18:46
Airport East Midlands Airport (EGNX)

Arrival

Time 2026-05-06 19:26
Airport Edinburgh Airport (EGPH)
Time Latitude Longitude Altitude Speed Heading
2026-05-06 18:16 52.82818 -1.31814 306 ft 0 kts 178°
2026-05-06 18:33 52.82822 -1.31814 304 ft 3 kts 178°
2026-05-06 18:34 52.82846 -1.31815 304 ft 3 kts 178°
2026-05-06 18:34 52.82866 -1.31814 304 ft 3 kts 194°
2026-05-06 18:34 52.82880 -1.31797 307 ft 3 kts 244°
2026-05-06 18:34 52.82884 -1.31762 304 ft 3 kts 269°
2026-05-06 18:35 52.82884 -1.31743 304 ft 1 kts 268°
2026-05-06 18:35 52.82884 -1.31742 304 ft 0 kts 268°
2026-05-06 18:39 52.82884 -1.31747 304 ft 2 kts 268°
2026-05-06 18:40 52.82882 -1.31861 306 ft 7 kts 269°
2026-05-06 18:40 52.82881 -1.31951 304 ft 9 kts 268°
2026-05-06 18:40 52.82878 -1.32065 304 ft 11 kts 268°
2026-05-06 18:40 52.82893 -1.32154 307 ft 8 kts 332°
2026-05-06 18:41 52.82938 -1.32205 305 ft 9 kts 287°
2026-05-06 18:41 52.82940 -1.32315 304 ft 11 kts 269°
2026-05-06 18:41 52.82938 -1.32446 305 ft 12 kts 268°
2026-05-06 18:41 52.82935 -1.32606 304 ft 15 kts 268°
2026-05-06 18:42 52.82932 -1.32787 308 ft 16 kts 268°
2026-05-06 18:42 52.82929 -1.32982 305 ft 18 kts 269°
2026-05-06 18:42 52.82924 -1.33201 305 ft 20 kts 268°
2026-05-06 18:42 52.82920 -1.33422 311 ft 20 kts 268°
2026-05-06 18:43 52.82916 -1.33665 310 ft 22 kts 269°
2026-05-06 18:43 52.82911 -1.33923 308 ft 23 kts 268°
2026-05-06 18:43 52.82907 -1.34187 305 ft 18 kts 269°
2026-05-06 18:43 52.82908 -1.34331 308 ft 7 kts 270°
2026-05-06 18:44 52.82907 -1.34420 308 ft 9 kts 269°
2026-05-06 18:44 52.82905 -1.34542 310 ft 9 kts 268°
2026-05-06 18:44 52.82919 -1.34649 309 ft 10 kts 320°
2026-05-06 18:44 52.82996 -1.34668 306 ft 12 kts
2026-05-06 18:45 52.83067 -1.34606 305 ft 11 kts 71°
2026-05-06 18:45 52.83074 -1.34244 307 ft 69 kts 88°
2026-05-06 18:45 52.83102 -1.32991 316 ft 144 kts 90°
2026-05-06 18:45 52.83077 -1.31164 766 ft 169 kts 92°
2026-05-06 18:46 52.82962 -1.29172 1598 ft 178 kts 95°
2026-05-06 18:46 52.82818 -1.27178 2193 ft 173 kts 95°
2026-05-06 18:46 52.82722 -1.25195 2375 ft 176 kts 85°
2026-05-06 18:46 52.83203 -1.23399 2520 ft 187 kts 38°
2026-05-06 18:47 52.84519 -1.22908 2743 ft 211 kts 349°
2026-05-06 18:47 52.85728 -1.24301 3209 ft 222 kts 307°
2026-05-06 18:47 52.86486 -1.26520 4296 ft 217 kts 300°
2026-05-06 18:47 52.87202 -1.28720 5331 ft 221 kts 300°
2026-05-06 18:48 52.87990 -1.31046 5969 ft 244 kts 300°
2026-05-06 18:48 52.88877 -1.33619 6548 ft 269 kts 300°
2026-05-06 18:48 52.89844 -1.36413 7110 ft 290 kts 300°
2026-05-06 18:48 52.90882 -1.39399 7681 ft 306 kts 301°
2026-05-06 18:49 52.92237 -1.42211 8245 ft 319 kts 314°
2026-05-06 18:49 52.93835 -1.44819 8816 ft 332 kts 316°
2026-05-06 18:49 52.95493 -1.47517 9786 ft 333 kts 315°
2026-05-06 18:49 52.97124 -1.50273 10648 ft 337 kts 314°
2026-05-06 18:50 52.98727 -1.53131 11521 ft 341 kts 311°
2026-05-06 18:50 53.00301 -1.56145 12271 ft 346 kts 310°
2026-05-06 18:50 53.01838 -1.59183 12976 ft 349 kts 309°
2026-05-06 18:50 53.03357 -1.62372 13710 ft 352 kts 307°
2026-05-06 18:51 53.04829 -1.65659 14418 ft 355 kts 306°
2026-05-06 18:51 53.06277 -1.69020 15129 ft 359 kts 305°
2026-05-06 18:51 53.07720 -1.72438 15923 ft 363 kts 304°
2026-05-06 18:51 53.09172 -1.75905 16659 ft 368 kts 304°
2026-05-06 18:52 53.10646 -1.79436 17434 ft 372 kts 304°
2026-05-06 18:52 53.12177 -1.82936 18164 ft 377 kts 311°
2026-05-06 18:52 53.14203 -1.85662 18830 ft 383 kts 328°
2026-05-06 18:52 53.16620 -1.87559 19513 ft 388 kts 340°
2026-05-06 18:53 53.19269 -1.88628 20207 ft 394 kts 347°
2026-05-06 18:53 53.21999 -1.89274 20905 ft 398 kts 352°
2026-05-06 18:53 53.24763 -1.89711 21420 ft 402 kts 352°
2026-05-06 18:53 53.27555 -1.90323 21984 ft 405 kts 349°
2026-05-06 18:54 53.30344 -1.91079 22530 ft 408 kts 349°
2026-05-06 18:54 53.33171 -1.91761 23074 ft 411 kts 351°
2026-05-06 18:54 53.36023 -1.92363 23618 ft 415 kts 351°
2026-05-06 18:54 53.38897 -1.93019 24079 ft 417 kts 350°
2026-05-06 18:55 53.41748 -1.93721 24567 ft 419 kts 350°
2026-05-06 18:55 53.44639 -1.94407 25042 ft 421 kts 350°
2026-05-06 18:55 53.47547 -1.95070 25504 ft 423 kts 351°
2026-05-06 18:55 53.50468 -1.95754 25906 ft 425 kts 350°
2026-05-06 18:56 53.53356 -1.96838 26293 ft 425 kts 342°
2026-05-06 18:56 53.56157 -1.98494 26700 ft 426 kts 337°
2026-05-06 18:56 53.58887 -2.00463 27071 ft 428 kts 335°
2026-05-06 18:56 53.61620 -2.02343 27389 ft 430 kts 338°
2026-05-06 18:57 53.64451 -2.04022 27731 ft 432 kts 340°
2026-05-06 18:57 53.67290 -2.05727 28041 ft 435 kts 339°
2026-05-06 18:57 53.70148 -2.07607 28032 ft 444 kts 337°
2026-05-06 18:57 53.73061 -2.09539 28033 ft 456 kts 338°
2026-05-06 18:58 53.76092 -2.11473 28045 ft 471 kts 338°
2026-05-06 18:58 53.82114 -2.15601 28036 ft 469 kts 336°
2026-05-06 18:59 53.88177 -2.19734 28041 ft 469 kts 338°
2026-05-06 18:59 53.94232 -2.23892 28038 ft 469 kts 337°
2026-05-06 19:00 54.00252 -2.28024 28030 ft 468 kts 337°
2026-05-06 19:00 54.06290 -2.32199 28024 ft 468 kts 336°
2026-05-06 19:01 54.12336 -2.36386 28027 ft 468 kts 337°
2026-05-06 19:01 54.18343 -2.40565 28030 ft 468 kts 336°
2026-05-06 19:02 54.24391 -2.44769 28036 ft 468 kts 336°
2026-05-06 19:02 54.30395 -2.48964 28036 ft 468 kts 336°
2026-05-06 19:03 54.36431 -2.53185 28033 ft 468 kts 336°
2026-05-06 19:03 54.42521 -2.57469 28032 ft 474 kts 336°
2026-05-06 19:04 54.48639 -2.61776 28028 ft 474 kts 336°
2026-05-06 19:04 54.54721 -2.66083 28030 ft 474 kts 336°
2026-05-06 19:05 54.60841 -2.70421 28020 ft 473 kts 336°
2026-05-06 19:05 54.66894 -2.74731 28021 ft 472 kts 336°
2026-05-06 19:05 54.69812 -2.76808 28025 ft 430 kts 336°
2026-05-06 19:06 54.72464 -2.78697 28022 ft 399 kts 336°
2026-05-06 19:06 54.77513 -2.82328 27683 ft 394 kts 336°
2026-05-06 19:06 54.80045 -2.84139 27351 ft 392 kts 336°
2026-05-06 19:07 54.81755 -2.85363 27163 ft 391 kts 336°
2026-05-06 19:07 54.84268 -2.87171 26896 ft 391 kts 336°
2026-05-06 19:07 54.86775 -2.88980 26613 ft 390 kts 335°
2026-05-06 19:07 54.89248 -2.90762 26335 ft 388 kts 335°
2026-05-06 19:08 54.91741 -2.92561 26001 ft 387 kts 335°
2026-05-06 19:08 54.94208 -2.94346 25618 ft 375 kts 335°
2026-05-06 19:08 54.96585 -2.96065 25205 ft 365 kts 335°
2026-05-06 19:08 54.98917 -2.97757 24817 ft 361 kts 334°
2026-05-06 19:09 55.01234 -2.99441 24418 ft 359 kts 334°
2026-05-06 19:09 55.03516 -3.01099 24018 ft 358 kts 334°
2026-05-06 19:09 55.05811 -3.02769 23616 ft 357 kts 334°
2026-05-06 19:09 55.08101 -3.04440 23124 ft 355 kts 334°
2026-05-06 19:10 55.10382 -3.06103 22548 ft 353 kts 334°
2026-05-06 19:10 55.12641 -3.07752 21924 ft 351 kts 334°
2026-05-06 19:10 55.14886 -3.09396 21254 ft 349 kts 334°
2026-05-06 19:10 55.17117 -3.11029 20582 ft 346 kts 334°
2026-05-06 19:11 55.19330 -3.12650 19876 ft 343 kts 334°
2026-05-06 19:11 55.21525 -3.14264 19176 ft 341 kts 334°
2026-05-06 19:11 55.23675 -3.15844 18507 ft 339 kts 333°
2026-05-06 19:11 55.25843 -3.17439 17664 ft 333 kts 333°
2026-05-06 19:12 55.27952 -3.18983 16742 ft 324 kts 334°
2026-05-06 19:12 55.30108 -3.20050 15854 ft 320 kts 350°
2026-05-06 19:12 55.32323 -3.20146 15049 ft 315 kts 359°
2026-05-06 19:12 55.34483 -3.19816 14285 ft 309 kts
2026-05-06 19:13 55.36599 -3.19354 13493 ft 304 kts
2026-05-06 19:13 55.38661 -3.19017 12673 ft 300 kts
2026-05-06 19:13 55.40718 -3.19035 11847 ft 293 kts 345°
2026-05-06 19:13 55.42491 -3.20597 11057 ft 283 kts 317°
2026-05-06 19:14 55.43850 -3.23070 10245 ft 281 kts 308°
2026-05-06 19:14 55.45103 -3.25758 9147 ft 286 kts 308°
2026-05-06 19:14 55.46373 -3.28491 8037 ft 289 kts 308°
2026-05-06 19:14 55.47640 -3.31231 6961 ft 289 kts 308°
2026-05-06 19:15 55.48916 -3.33845 6369 ft 274 kts 314°
2026-05-06 19:15 55.50399 -3.35862 5772 ft 265 kts 328°
2026-05-06 19:15 55.51924 -3.37345 5615 ft 243 kts 329°
2026-05-06 19:15 55.53344 -3.38755 5443 ft 226 kts 324°
2026-05-06 19:16 55.54627 -3.40294 5304 ft 220 kts 328°
2026-05-06 19:16 55.55933 -3.41585 5212 ft 205 kts 328°
2026-05-06 19:16 55.57158 -3.42814 5084 ft 201 kts 328°
2026-05-06 19:16 55.58378 -3.44034 4964 ft 202 kts 328°
2026-05-06 19:17 55.59604 -3.45249 4833 ft 201 kts 328°
2026-05-06 19:17 55.60812 -3.46442 4737 ft 201 kts 328°
2026-05-06 19:17 55.62041 -3.47652 4635 ft 202 kts 328°
2026-05-06 19:17 55.63266 -3.48861 4505 ft 202 kts 328°
2026-05-06 19:18 55.64497 -3.50070 4323 ft 202 kts 329°
2026-05-06 19:18 55.65742 -3.51255 4117 ft 204 kts 330°
2026-05-06 19:18 55.66986 -3.52418 3972 ft 201 kts 330°
2026-05-06 19:18 55.68217 -3.53544 3914 ft 201 kts 330°
2026-05-06 19:19 55.69463 -3.54681 3897 ft 201 kts 330°
2026-05-06 19:19 55.70715 -3.55814 3927 ft 202 kts 330°
2026-05-06 19:19 55.71972 -3.56961 3879 ft 201 kts 330°
2026-05-06 19:19 55.73209 -3.58123 3882 ft 201 kts 330°
2026-05-06 19:20 55.74448 -3.59253 3842 ft 200 kts 331°
2026-05-06 19:20 55.75685 -3.60382 3823 ft 200 kts 330°
2026-05-06 19:20 55.76922 -3.61472 3686 ft 202 kts 335°
2026-05-06 19:20 55.78286 -3.62117 3425 ft 204 kts 351°
2026-05-06 19:21 55.79686 -3.62279 3412 ft 203 kts 357°
2026-05-06 19:21 55.81099 -3.62321 3350 ft 201 kts 359°
2026-05-06 19:21 55.82504 -3.62311 3297 ft 203 kts
2026-05-06 19:21 55.83894 -3.62252 3270 ft 201 kts
2026-05-06 19:22 55.85292 -3.62069 3285 ft 200 kts
2026-05-06 19:22 55.86624 -3.61355 3186 ft 204 kts 34°
2026-05-06 19:22 55.87539 -3.59495 2842 ft 200 kts 61°
2026-05-06 19:22 55.88235 -3.57408 2537 ft 184 kts 63°
2026-05-06 19:23 55.88827 -3.55546 2320 ft 168 kts 63°
2026-05-06 19:23 55.89386 -3.53814 2208 ft 148 kts 62°
2026-05-06 19:23 55.89913 -3.52293 1930 ft 144 kts 62°
2026-05-06 19:23 55.90417 -3.50770 1675 ft 137 kts 64°
2026-05-06 19:24 55.90889 -3.49333 1440 ft 133 kts 61°
2026-05-06 19:24 55.91389 -3.47911 1284 ft 136 kts 61°
2026-05-06 19:24 55.91879 -3.46480 1114 ft 131 kts 62°
2026-05-06 19:24 55.92341 -3.45099 958 ft 130 kts 62°
2026-05-06 19:25 55.92811 -3.43726 794 ft 130 kts 62°
2026-05-06 19:25 55.93275 -3.42338 602 ft 132 kts 63°
2026-05-06 19:25 55.93748 -3.40951 428 ft 130 kts 63°
2026-05-06 19:25 55.94221 -3.39566 276 ft 131 kts 64°
2026-05-06 19:26 55.94689 -3.38186 122 ft 127 kts 63°
2026-05-06 19:26 55.95088 -3.36990 115 ft 92 kts 59°
2026-05-06 19:26 55.95321 -3.36301 114 ft 51 kts 58°
2026-05-06 19:26 55.95487 -3.35812 116 ft 36 kts 59°
2026-05-06 19:27 55.95562 -3.35585 116 ft 19 kts 62°
2026-05-06 19:27 55.95530 -3.35473 118 ft 9 kts 149°
2026-05-06 19:27 55.95479 -3.35419 118 ft 8 kts 149°
2026-05-06 19:27 55.95429 -3.35419 119 ft 7 kts 219°
2026-05-06 19:28 55.95400 -3.35497 118 ft 7 kts 240°
2026-05-06 19:28 55.95370 -3.35588 119 ft 10 kts 239°
2026-05-06 19:28 55.95335 -3.35688 118 ft 10 kts 238°
2026-05-06 19:28 55.95297 -3.35797 119 ft 9 kts 238°
2026-05-06 19:29 55.95262 -3.35828 119 ft 5 kts 164°
2026-05-06 19:29 55.95228 -3.35787 117 ft 7 kts 127°
2026-05-06 19:29 55.95200 -3.35708 117 ft 8 kts 120°
2026-05-06 19:29 55.95169 -3.35611 120 ft 8 kts 118°
2026-05-06 19:30 55.95147 -3.35538 119 ft 6 kts 114°
2026-05-06 19:30 55.95155 -3.35497 120 ft 5 kts 40°
2026-05-06 19:30 55.95178 -3.35474 120 ft 1 kts 28°
2026-05-06 19:30 55.95181 -3.35471 120 ft 0 kts 28°
2026-05-06 19:31 55.95182 -3.35470 120 ft 0 kts 28°